• In Lithuania
  • List of Countries
  • For 7 days
  • Water Temperature
  • Satellite Maps
  • Weather Map
  • Weather Widgets
  • user-avatar
    Login

    Hourly Weather Cachungo

    Today, 13 December, Wednesday

    Time Temperature Precipitation Wind Pressure Humidity
    00:00 +24°C° 0 mm 3 mps 757 mmHg 35%
    01:00 +22°C° 0 mm 3 mps 757 mmHg 38%
    02:00 +22°C° 0 mm 3 mps 756 mmHg 41%
    03:00 +21°C° 0 mm 4 mps 756 mmHg 39%
    04:00 +21°C° 0 mm 4 mps 757 mmHg 37%
    05:00 +20°C° 0 mm 4 mps 757 mmHg 35%
    06:00 +21°C° 0 mm 4 mps 757 mmHg 31%
    07:00 +22°C° 0 mm 4 mps 757 mmHg 28%
    08:00 +23°C° 0 mm 4 mps 758 mmHg 25%
    09:00 +27°C° 0 mm 4 mps 758 mmHg 21%
    10:00 +29°C° 0 mm 4 mps 758 mmHg 17%
    11:00 +33°C° 0 mm 4 mps 758 mmHg 12%
    12:00 +34°C° 0 mm 3 mps 757 mmHg 13%
    13:00 +35°C° 0 mm 2 mps 757 mmHg 13%
    14:00 +37°C° 0 mm 2 mps 756 mmHg 14%
    15:00 +35°C° 0 mm 2 mps 756 mmHg 16%
    16:00 +34°C° 0 mm 2 mps 756 mmHg 18%
    17:00 +32°C° 0 mm 2 mps 756 mmHg 21%
    18:00 +30°C° 0 mm 3 mps 756 mmHg 25%
    19:00 +28°C° 0 mm 3 mps 757 mmHg 28%
    20:00 +26°C° 0 mm 3 mps 757 mmHg 32%
    21:00 +25°C° 0 mm 3 mps 757 mmHg 32%
    22:00 +25°C° 0 mm 3 mps 757 mmHg 31%
    23:00 +24°C° 0 mm 3 mps 757 mmHg 30%

    Tomorrow, 14 December, Thursday

    Time Temperature Precipitation Wind Pressure Humidity
    00:00 +22°C° 0 mm 3 mps 757 mmHg 30%
    01:00 +22°C° 0 mm 4 mps 757 mmHg 31%
    02:00 +21°C° 0 mm 4 mps 757 mmHg 31%
    03:00 +20°C° 0 mm 4 mps 756 mmHg 31%
    04:00 +20°C° 0 mm 4 mps 756 mmHg 31%
    05:00 +19°C° 0 mm 4 mps 756 mmHg 30%
    06:00 +20°C° 0 mm 4 mps 757 mmHg 31%
    07:00 +21°C° 0 mm 5 mps 757 mmHg 31%
    08:00 +22°C° 0 mm 5 mps 757 mmHg 32%
    09:00 +26°C° 0 mm 5 mps 757 mmHg 28%
    10:00 +29°C° 0 mm 4 mps 757 mmHg 23%
    11:00 +33°C° 0 mm 4 mps 757 mmHg 19%
    12:00 +34°C° 0 mm 3 mps 757 mmHg 18%
    13:00 +36°C° 0 mm 2 mps 756 mmHg 17%
    14:00 +37°C° 0 mm 1 mps 755 mmHg 16%
    15:00 +36°C° 0 mm 2 mps 755 mmHg 18%
    16:00 +35°C° 0 mm 2 mps 755 mmHg 21%
    17:00 +34°C° 0 mm 3 mps 755 mmHg 23%
    18:00 +31°C° 0 mm 3 mps 756 mmHg 27%
    19:00 +29°C° 0 mm 3 mps 756 mmHg 31%
    20:00 +27°C° 0 mm 3 mps 757 mmHg 35%
    21:00 +26°C° 0 mm 3 mps 757 mmHg 33%
    22:00 +25°C° 0 mm 3 mps 757 mmHg 30%
    23:00 +24°C° 0 mm 3 mps 758 mmHg 28%

    Day after tomorrow, 15 December, Friday

    Time Temperature Precipitation Wind Pressure Humidity
    00:00 +24°C° 0 mm 3 mps 757 mmHg 27%
    01:00 +22°C° 0 mm 3 mps 757 mmHg 26%
    02:00 +22°C° 0 mm 3 mps 757 mmHg 26%
    03:00 +21°C° 0 mm 3 mps 757 mmHg 25%
    04:00 +21°C° 0 mm 4 mps 757 mmHg 25%
    05:00 +20°C° 0 mm 4 mps 757 mmHg 24%
    06:00 +22°C° 0 mm 4 mps 757 mmHg 23%
    07:00 +23°C° 0 mm 4 mps 758 mmHg 22%
    08:00 +25°C° 0 mm 5 mps 758 mmHg 22%
    09:00 +28°C° 0 mm 5 mps 758 mmHg 19%
    10:00 +32°C° 0 mm 4 mps 758 mmHg 17%
    11:00 +35°C° 0 mm 4 mps 758 mmHg 15%
    12:00 +36°C° 0 mm 3 mps 757 mmHg 14%
    13:00 +37°C° 0 mm 2 mps 756 mmHg 14%
    14:00 +38°C° 0 mm 2 mps 755 mmHg 14%
    15:00 +37°C° 0 mm 2 mps 755 mmHg 16%
    16:00 +36°C° 0 mm 2 mps 755 mmHg 18%
    17:00 +35°C° 0 mm 3 mps 755 mmHg 21%
    18:00 +33°C° 0 mm 3 mps 756 mmHg 25%
    19:00 +30°C° 0 mm 3 mps 756 mmHg 29%
    20:00 +27°C° 0 mm 4 mps 757 mmHg 32%
    21:00 +27°C° 0 mm 4 mps 757 mmHg 30%
    22:00 +26°C° 0 mm 3 mps 757 mmHg 28%
    23:00 +26°C° 0 mm 3 mps 757 mmHg 26%

    16 December, Saturday

    Time Temperature Precipitation Wind Pressure Humidity
    00:00 +25°C° 0 mm 3 mps 757 mmHg 27%
    01:00 +25°C° 0 mm 3 mps 757 mmHg 28%
    02:00 +24°C° 0 mm 3 mps 756 mmHg 29%
    03:00 +24°C° 0 mm 3 mps 756 mmHg 27%
    04:00 +24°C° 0 mm 3 mps 756 mmHg 24%
    05:00 +22°C° 0 mm 3 mps 756 mmHg 22%
    06:00 +23°C° 0 mm 4 mps 757 mmHg 20%
    07:00 +25°C° 0 mm 4 mps 757 mmHg 18%
    08:00 +26°C° 0 mm 4 mps 758 mmHg 17%
    09:00 +29°C° 0 mm 4 mps 758 mmHg 15%
    10:00 +33°C° 0 mm 4 mps 758 mmHg 13%
    11:00 +36°C° 0 mm 4 mps 757 mmHg 11%
    12:00 +37°C° 0 mm 3 mps 757 mmHg 11%
    13:00 +38°C° 0 mm 2 mps 756 mmHg 11%
    14:00 +39°C° 0 mm 2 mps 755 mmHg 11%
    15:00 +38°C° 0 mm 2 mps 755 mmHg 13%
    16:00 +37°C° 0 mm 3 mps 755 mmHg 15%
    17:00 +36°C° 0 mm 3 mps 756 mmHg 18%
    18:00 +34°C° 0 mm 3 mps 756 mmHg 20%
    19:00 +30°C° 0 mm 3 mps 757 mmHg 23%
    20:00 +28°C° 0 mm 4 mps 757 mmHg 25%
    21:00 +28°C° 0 mm 4 mps 757 mmHg 24%
    22:00 +27°C° 0 mm 3 mps 757 mmHg 22%
    23:00 +26°C° 0 mm 3 mps 758 mmHg 21%

    17 December, Sunday

    Time Temperature Precipitation Wind Pressure Humidity
    00:00 +26°C° 0 mm 4 mps 757 mmHg 20%
    01:00 +25°C° 0 mm 4 mps 757 mmHg 20%
    02:00 +25°C° 0 mm 4 mps 757 mmHg 19%
    03:00 +23°C° 0 mm 4 mps 757 mmHg 19%
    04:00 +22°C° 0 mm 4 mps 757 mmHg 19%
    05:00 +22°C° 0 mm 4 mps 757 mmHg 20%
    06:00 +23°C° 0 mm 4 mps 757 mmHg 19%
    07:00 +25°C° 0 mm 5 mps 757 mmHg 18%
    08:00 +27°C° 0 mm 5 mps 758 mmHg 17%
    09:00 +29°C° 0 mm 5 mps 758 mmHg 15%
    10:00 +33°C° 0 mm 5 mps 757 mmHg 13%
    11:00 +36°C° 0 mm 5 mps 757 mmHg 12%
    12:00 +37°C° 0 mm 4 mps 757 mmHg 11%
    13:00 +38°C° 0 mm 4 mps 756 mmHg 11%
    14:00 +39°C° 0 mm 3 mps 755 mmHg 11%
    15:00 +39°C° 0 mm 3 mps 755 mmHg 13%
    16:00 +38°C° 0 mm 3 mps 755 mmHg 15%
    17:00 +37°C° 0 mm 3 mps 755 mmHg 16%
    18:00 +34°C° 0 mm 3 mps 755 mmHg 19%
    19:00 +31°C° 0 mm 3 mps 756 mmHg 21%
    20:00 +29°C° 0 mm 4 mps 757 mmHg 23%
    21:00 +28°C° 0 mm 4 mps 757 mmHg 25%
    22:00 +28°C° 0 mm 4 mps 757 mmHg 27%
    23:00 +27°C° 0 mm 4 mps 757 mmHg 28%

    18 December, Monday

    Time Temperature Precipitation Wind Pressure Humidity
    00:00 +27°C° 0 mm 4 mps 756 mmHg 26%
    01:00 +26°C° 0 mm 4 mps 756 mmHg 23%
    02:00 +26°C° 0 mm 5 mps 756 mmHg 21%
    03:00 +25°C° 0 mm 4 mps 756 mmHg 20%
    04:00 +23°C° 0 mm 4 mps 756 mmHg 20%
    05:00 +23°C° 0 mm 4 mps 756 mmHg 20%
    06:00 +25°C° 0 mm 4 mps 757 mmHg 19%
    07:00 +26°C° 0 mm 5 mps 757 mmHg 18%
    08:00 +27°C° 0 mm 5 mps 758 mmHg 18%
    09:00 +30°C° 0 mm 4 mps 757 mmHg 16%
    10:00 +33°C° 0 mm 4 mps 757 mmHg 14%
    11:00 +36°C° 0 mm 4 mps 757 mmHg 12%
    12:00 +37°C° 0 mm 3 mps 756 mmHg 13%
    13:00 +38°C° 0 mm 3 mps 755 mmHg 13%
    14:00 +39°C° 0 mm 2 mps 754 mmHg 13%
    15:00 +38°C° 0 mm 3 mps 754 mmHg 16%
    16:00 +37°C° 0 mm 3 mps 754 mmHg 18%
    17:00 +36°C° 0 mm 3 mps 754 mmHg 20%
    18:00 +34°C° 0 mm 3 mps 755 mmHg 22%
    19:00 +31°C° 0 mm 3 mps 755 mmHg 24%
    20:00 +29°C° 0 mm 3 mps 756 mmHg 26%
    21:00 +28°C° 0 mm 4 mps 756 mmHg 26%
    22:00 +28°C° 0 mm 4 mps 756 mmHg 27%
    23:00 +27°C° 0 mm 4 mps 756 mmHg 27%
    Show more